NDF19CJ EGKK-EGPH

Flight info

Callsign NDF19CJ
Flight time 1h 0m
Altitude 38000
Route LAM1Z LAM L10 BPK UN601 RIBEL DCT INPIP INPIP1E
Aircraft A20N/M-SDE2E3FGHIRWXY/LB1

Departure

Time 2026-04-25 21:21
Airport London Gatwick Airport (EGKK)

Arrival

Time 2026-04-25 22:21
Airport Edinburgh Airport (EGPH)
Time Latitude Longitude Altitude Speed Heading
2026-04-25 20:42 51.15828 -0.17739 208 ft 0 kts 348°
2026-04-25 21:03 51.15825 -0.17738 204 ft 2 kts 348°
2026-04-25 21:03 51.15813 -0.17735 214 ft 2 kts 348°
2026-04-25 21:04 51.15802 -0.17731 208 ft 2 kts 348°
2026-04-25 21:04 51.15791 -0.17727 214 ft 2 kts 348°
2026-04-25 21:04 51.15780 -0.17723 214 ft 2 kts 348°
2026-04-25 21:04 51.15769 -0.17719 214 ft 2 kts 347°
2026-04-25 21:05 51.15758 -0.17715 208 ft 2 kts 341°
2026-04-25 21:05 51.15747 -0.17708 211 ft 2 kts 308°
2026-04-25 21:05 51.15740 -0.17694 217 ft 2 kts 283°
2026-04-25 21:05 51.15740 -0.17681 217 ft 0 kts 256°
2026-04-25 21:07 51.15736 -0.17705 214 ft 7 kts 256°
2026-04-25 21:07 51.15718 -0.17829 213 ft 15 kts 257°
2026-04-25 21:07 51.15692 -0.18012 215 ft 19 kts 257°
2026-04-25 21:08 51.15665 -0.18211 213 ft 14 kts 258°
2026-04-25 21:08 51.15643 -0.18369 204 ft 15 kts 258°
2026-04-25 21:08 51.15622 -0.18524 206 ft 16 kts 257°
2026-04-25 21:08 51.15597 -0.18702 211 ft 15 kts 257°
2026-04-25 21:09 51.15495 -0.18813 207 ft 12 kts 168°
2026-04-25 21:09 51.15405 -0.18782 204 ft 14 kts 167°
2026-04-25 21:09 51.15320 -0.18754 214 ft 12 kts 168°
2026-04-25 21:10 51.15236 -0.18723 207 ft 13 kts 167°
2026-04-25 21:10 51.15133 -0.18735 211 ft 17 kts 226°
2026-04-25 21:10 51.15104 -0.18921 210 ft 20 kts 255°
2026-04-25 21:10 51.15072 -0.19156 214 ft 21 kts 258°
2026-04-25 21:11 51.15044 -0.19373 207 ft 21 kts 257°
2026-04-25 21:11 51.15013 -0.19603 216 ft 22 kts 257°
2026-04-25 21:11 51.14980 -0.19835 207 ft 18 kts 257°
2026-04-25 21:11 51.14951 -0.20047 208 ft 21 kts 257°
2026-04-25 21:12 51.14920 -0.20267 204 ft 18 kts 257°
2026-04-25 21:12 51.14891 -0.20473 208 ft 19 kts 256°
2026-04-25 21:12 51.14862 -0.20676 204 ft 19 kts 257°
2026-04-25 21:12 51.14847 -0.20795 204 ft 16 kts 258°
2026-04-25 21:13 51.14817 -0.21020 205 ft 17 kts 258°
2026-04-25 21:13 51.14782 -0.21209 210 ft 19 kts 254°
2026-04-25 21:13 51.14757 -0.21365 204 ft 8 kts 246°
2026-04-25 21:13 51.14727 -0.21398 206 ft 1 kts 187°
2026-04-25 21:14 51.14711 -0.21398 206 ft 0 kts 175°
2026-04-25 21:15 51.14691 -0.21386 213 ft 9 kts 156°
2026-04-25 21:15 51.14635 -0.21337 212 ft 8 kts 163°
2026-04-25 21:15 51.14629 -0.21335 209 ft 0 kts 167°
2026-04-25 21:20 51.14620 -0.21331 211 ft 6 kts 167°
2026-04-25 21:20 51.14547 -0.21273 211 ft 20 kts 138°
2026-04-25 21:21 51.14548 -0.20954 209 ft 59 kts 78°
2026-04-25 21:21 51.14697 -0.19875 210 ft 137 kts 77°
2026-04-25 21:21 51.14937 -0.18124 473 ft 175 kts 78°
2026-04-25 21:21 51.15199 -0.16129 1197 ft 191 kts 79°
2026-04-25 21:22 51.15486 -0.13982 2043 ft 202 kts 78°
2026-04-25 21:22 51.15796 -0.11739 2804 ft 212 kts 77°
2026-04-25 21:22 51.16127 -0.09383 3478 ft 230 kts 77°
2026-04-25 21:22 51.16660 -0.06861 4084 ft 250 kts 64°
2026-04-25 21:23 51.17635 -0.04481 4900 ft 260 kts 51°
2026-04-25 21:23 51.18771 -0.02207 5829 ft 265 kts 52°
2026-04-25 21:23 51.19927 0.00159 6497 ft 277 kts 52°
2026-04-25 21:23 51.21092 0.02570 6610 ft 273 kts 53°
2026-04-25 21:24 51.22257 0.04991 6787 ft 277 kts 53°
2026-04-25 21:24 51.23434 0.07441 7538 ft 278 kts 52°
2026-04-25 21:24 51.24522 0.09950 8538 ft 279 kts 61°
2026-04-25 21:24 51.25259 0.12879 9423 ft 287 kts 74°
2026-04-25 21:25 51.25668 0.15998 9600 ft 290 kts 79°
2026-04-25 21:25 51.26027 0.19159 9717 ft 289 kts 79°
2026-04-25 21:25 51.26386 0.22327 9835 ft 290 kts 79°
2026-04-25 21:25 51.26751 0.25509 9957 ft 291 kts 79°
2026-04-25 21:26 51.27121 0.28690 10072 ft 291 kts 78°
2026-04-25 21:26 51.27652 0.31809 10183 ft 291 kts 63°
2026-04-25 21:26 51.28885 0.34340 10276 ft 290 kts 38°
2026-04-25 21:26 51.30622 0.35939 10285 ft 289 kts 17°
2026-04-25 21:27 51.32613 0.36253 10312 ft 294 kts 351°
2026-04-25 21:27 51.34565 0.35147 10453 ft 314 kts 332°
2026-04-25 21:27 51.36574 0.33404 10897 ft 331 kts 331°
2026-04-25 21:27 51.38582 0.31646 11674 ft 336 kts 331°
2026-04-25 21:28 51.40645 0.29839 12549 ft 339 kts 331°
2026-04-25 21:28 51.42721 0.28021 13404 ft 342 kts 331°
2026-04-25 21:28 51.44836 0.26169 14244 ft 345 kts 331°
2026-04-25 21:28 51.46941 0.24332 14975 ft 348 kts 331°
2026-04-25 21:29 51.49086 0.22475 15722 ft 351 kts 331°
2026-04-25 21:29 51.51253 0.20613 16442 ft 355 kts 331°
2026-04-25 21:29 51.53443 0.18746 17169 ft 358 kts 331°
2026-04-25 21:29 51.55658 0.16869 17743 ft 363 kts 331°
2026-04-25 21:30 51.57894 0.14982 17862 ft 362 kts 331°
2026-04-25 21:30 51.60128 0.13094 17973 ft 363 kts 331°
2026-04-25 21:30 51.62366 0.11203 18082 ft 364 kts 331°
2026-04-25 21:30 51.63854 0.09944 18325 ft 367 kts 331°
2026-04-25 21:31 51.66857 0.07409 19260 ft 368 kts 331°
2026-04-25 21:31 51.69131 0.05488 19897 ft 370 kts 331°
2026-04-25 21:31 51.71424 0.03551 20517 ft 373 kts 331°
2026-04-25 21:31 51.73731 0.01599 21153 ft 376 kts 331°
2026-04-25 21:32 51.76060 -0.00373 21795 ft 379 kts 331°
2026-04-25 21:32 51.78406 -0.02359 22354 ft 382 kts 331°
2026-04-25 21:32 51.80737 -0.04440 22960 ft 384 kts 328°
2026-04-25 21:32 51.83026 -0.06728 23527 ft 388 kts 326°
2026-04-25 21:33 51.85308 -0.09088 24033 ft 390 kts 326°
2026-04-25 21:33 51.87608 -0.11464 24552 ft 392 kts 326°
2026-04-25 21:33 51.89919 -0.13833 25054 ft 394 kts 326°
2026-04-25 21:33 51.92218 -0.16173 25520 ft 396 kts 326°
2026-04-25 21:34 51.94567 -0.18558 26009 ft 399 kts 326°
2026-04-25 21:34 51.96923 -0.20950 26469 ft 401 kts 326°
2026-04-25 21:34 51.99292 -0.23357 26932 ft 403 kts 326°
2026-04-25 21:34 52.01679 -0.25786 27377 ft 405 kts 326°
2026-04-25 21:35 52.04072 -0.28224 27804 ft 407 kts 326°
2026-04-25 21:35 52.06481 -0.30682 28056 ft 410 kts 326°
2026-04-25 21:35 52.08899 -0.33153 28161 ft 411 kts 326°
2026-04-25 21:35 52.11323 -0.35633 28242 ft 411 kts 326°
2026-04-25 21:36 52.16138 -0.40568 28245 ft 411 kts 326°
2026-04-25 21:36 52.20971 -0.45535 28228 ft 411 kts 326°
2026-04-25 21:37 52.24201 -0.48863 28248 ft 411 kts 326°
2026-04-25 21:37 52.30645 -0.55519 28248 ft 414 kts 326°
2026-04-25 21:38 52.35508 -0.60557 28252 ft 413 kts 326°
2026-04-25 21:38 52.40355 -0.65591 28256 ft 413 kts 326°
2026-04-25 21:39 52.45177 -0.70613 28260 ft 413 kts 326°
2026-04-25 21:39 52.50028 -0.75678 28260 ft 413 kts 326°
2026-04-25 21:40 52.54062 -0.79902 28259 ft 416 kts 326°
2026-04-25 21:40 52.58944 -0.85024 28258 ft 415 kts 326°
2026-04-25 21:41 52.63813 -0.90146 28262 ft 415 kts 326°
2026-04-25 21:41 52.68678 -0.95278 28244 ft 415 kts 326°
2026-04-25 21:42 52.73547 -1.00429 28267 ft 415 kts 326°
2026-04-25 21:42 52.78369 -1.05541 28286 ft 416 kts 325°
2026-04-25 21:43 52.83247 -1.10731 28288 ft 416 kts 325°
2026-04-25 21:43 52.88122 -1.15928 28288 ft 416 kts 325°
2026-04-25 21:44 52.92984 -1.21127 28288 ft 416 kts 325°
2026-04-25 21:45 53.00274 -1.28949 28295 ft 416 kts 325°
2026-04-25 21:45 53.05164 -1.34214 28282 ft 419 kts 325°
2026-04-25 21:46 53.10023 -1.39459 28281 ft 419 kts 325°
2026-04-25 21:46 53.14915 -1.44754 28279 ft 419 kts 325°
2026-04-25 21:47 53.19793 -1.50048 28274 ft 419 kts 325°
2026-04-25 21:47 53.24673 -1.55357 28297 ft 417 kts 325°
2026-04-25 21:48 53.29556 -1.60688 28285 ft 419 kts 325°
2026-04-25 21:48 53.34429 -1.66022 28283 ft 419 kts 324°
2026-04-25 21:49 53.39314 -1.71384 28287 ft 419 kts 325°
2026-04-25 21:49 53.41855 -1.73644 28289 ft 422 kts 337°
2026-04-25 21:49 53.44714 -1.74861 28289 ft 426 kts 351°
2026-04-25 21:49 53.47689 -1.74896 28292 ft 431 kts
2026-04-25 21:50 53.50623 -1.73735 28293 ft 437 kts 18°
2026-04-25 21:50 53.56396 -1.70807 28301 ft 431 kts
2026-04-25 21:51 53.62205 -1.72310 28306 ft 422 kts 334°
2026-04-25 21:51 53.64743 -1.74717 28310 ft 418 kts 321°
2026-04-25 21:51 53.66846 -1.78058 28309 ft 415 kts 308°
2026-04-25 21:52 53.70219 -1.85967 28313 ft 415 kts 305°
2026-04-25 21:52 53.73768 -1.93665 28290 ft 417 kts 308°
2026-04-25 21:53 53.77532 -2.01155 28290 ft 417 kts 309°
2026-04-25 21:53 53.81320 -2.08582 28290 ft 417 kts 309°
2026-04-25 21:54 53.85236 -2.15812 28284 ft 418 kts 317°
2026-04-25 21:54 53.90166 -2.21081 28281 ft 423 kts 334°
2026-04-25 21:55 53.95635 -2.24824 28283 ft 424 kts 335°
2026-04-25 21:55 54.01108 -2.28605 28282 ft 425 kts 335°
2026-04-25 21:56 54.06549 -2.32366 28276 ft 425 kts 335°
2026-04-25 21:56 54.12016 -2.36147 28273 ft 424 kts 335°
2026-04-25 21:57 54.17488 -2.39943 28282 ft 425 kts 335°
2026-04-25 21:57 54.22973 -2.43759 28290 ft 425 kts 335°
2026-04-25 21:58 54.28462 -2.47589 28281 ft 426 kts 335°
2026-04-25 21:58 54.33948 -2.51427 28284 ft 426 kts 335°
2026-04-25 21:59 54.39419 -2.55266 28055 ft 422 kts 335°
2026-04-25 21:59 54.42139 -2.57178 27566 ft 420 kts 335°
2026-04-25 21:59 54.44797 -2.59050 27009 ft 417 kts 335°
2026-04-25 22:00 54.50111 -2.62800 26368 ft 412 kts 335°
2026-04-25 22:00 54.52780 -2.64689 26293 ft 415 kts 335°
2026-04-25 22:00 54.55440 -2.66575 26285 ft 414 kts 335°
2026-04-25 22:00 54.58105 -2.68465 26284 ft 414 kts 335°
2026-04-25 22:01 54.60774 -2.70361 26282 ft 416 kts 335°
2026-04-25 22:01 54.63454 -2.72268 26285 ft 415 kts 335°
2026-04-25 22:01 54.66120 -2.74166 26284 ft 415 kts 335°
2026-04-25 22:01 54.67891 -2.75429 26284 ft 415 kts 335°
2026-04-25 22:02 54.71462 -2.77979 26284 ft 415 kts 335°
2026-04-25 22:02 54.74136 -2.79893 26285 ft 417 kts 335°
2026-04-25 22:02 54.76814 -2.81812 26277 ft 417 kts 335°
2026-04-25 22:02 54.79497 -2.83736 26276 ft 416 kts 335°
2026-04-25 22:03 54.82178 -2.85663 26276 ft 416 kts 335°
2026-04-25 22:03 54.84826 -2.87568 26276 ft 416 kts 335°
2026-04-25 22:03 54.87502 -2.89495 26276 ft 416 kts 335°
2026-04-25 22:03 54.90176 -2.91425 26276 ft 416 kts 335°
2026-04-25 22:04 54.92851 -2.93358 26284 ft 416 kts 335°
2026-04-25 22:04 54.95526 -2.95294 26284 ft 416 kts 335°
2026-04-25 22:04 54.98201 -2.97233 26291 ft 417 kts 335°
2026-04-25 22:04 55.00886 -2.99182 26236 ft 416 kts 335°
2026-04-25 22:05 55.03548 -3.01116 25906 ft 414 kts 335°
2026-04-25 22:05 55.06207 -3.03052 25369 ft 414 kts 335°
2026-04-25 22:05 55.08851 -3.04979 24610 ft 409 kts 335°
2026-04-25 22:05 55.11462 -3.06884 23748 ft 405 kts 335°
2026-04-25 22:06 55.14024 -3.08757 22706 ft 402 kts 335°
2026-04-25 22:06 55.16606 -3.10648 21606 ft 402 kts 335°
2026-04-25 22:06 55.19153 -3.12513 21033 ft 389 kts 335°
2026-04-25 22:06 55.21604 -3.14309 20587 ft 373 kts 335°
2026-04-25 22:07 55.23938 -3.16021 20394 ft 353 kts 335°
2026-04-25 22:07 55.25416 -3.17107 20253 ft 342 kts 335°
2026-04-25 22:07 55.28316 -3.19179 19504 ft 335 kts 340°
2026-04-25 22:07 55.30597 -3.20018 18850 ft 336 kts 353°
2026-04-25 22:08 55.32935 -3.19965 18191 ft 336 kts
2026-04-25 22:08 55.35255 -3.19577 17517 ft 333 kts
2026-04-25 22:08 55.37558 -3.19217 16858 ft 331 kts
2026-04-25 22:08 55.39847 -3.18865 16216 ft 328 kts
2026-04-25 22:09 55.42117 -3.18516 15596 ft 325 kts
2026-04-25 22:09 55.44367 -3.18167 14976 ft 323 kts
2026-04-25 22:09 55.46607 -3.17818 14380 ft 321 kts
2026-04-25 22:09 55.48797 -3.17475 13771 ft 319 kts
2026-04-25 22:10 55.51001 -3.17128 13143 ft 316 kts
2026-04-25 22:10 55.53184 -3.16785 12539 ft 313 kts
2026-04-25 22:10 55.55343 -3.16445 11943 ft 310 kts
2026-04-25 22:10 55.57483 -3.16108 11359 ft 307 kts
2026-04-25 22:11 55.59606 -3.15774 10797 ft 304 kts
2026-04-25 22:11 55.61707 -3.15443 10240 ft 302 kts
2026-04-25 22:11 55.63786 -3.15115 9695 ft 297 kts
2026-04-25 22:11 55.65827 -3.14791 9194 ft 291 kts
2026-04-25 22:12 55.67837 -3.14502 8629 ft 288 kts 358°
2026-04-25 22:12 55.69763 -3.15208 8069 ft 281 kts 331°
2026-04-25 22:12 55.71203 -3.17308 7855 ft 260 kts 303°
2026-04-25 22:12 55.71851 -3.19058 7636 ft 256 kts 300°
2026-04-25 22:13 55.73073 -3.22608 7222 ft 253 kts 299°
2026-04-25 22:13 55.73989 -3.25265 6905 ft 252 kts 299°
2026-04-25 22:13 55.74797 -3.27974 6652 ft 245 kts 288°
2026-04-25 22:13 55.75297 -3.30848 6337 ft 243 kts 284°
2026-04-25 22:14 55.75760 -3.33715 6034 ft 241 kts 284°
2026-04-25 22:14 55.76214 -3.36576 5670 ft 242 kts 284°
2026-04-25 22:14 55.76676 -3.39471 5305 ft 242 kts 284°
2026-04-25 22:14 55.77146 -3.42314 5004 ft 240 kts 284°
2026-04-25 22:15 55.77610 -3.45161 4662 ft 240 kts 284°
2026-04-25 22:15 55.78084 -3.47990 4328 ft 239 kts 285°
2026-04-25 22:15 55.78557 -3.50847 4000 ft 239 kts 284°
2026-04-25 22:16 55.79522 -3.56511 3254 ft 239 kts 283°
2026-04-25 22:16 55.79981 -3.59309 3063 ft 230 kts 284°
2026-04-25 22:16 55.80697 -3.61890 2995 ft 238 kts 311°
2026-04-25 22:16 55.82033 -3.63484 2993 ft 237 kts 343°
2026-04-25 22:17 55.83633 -3.63616 2990 ft 225 kts 17°
2026-04-25 22:17 55.85057 -3.62682 2988 ft 207 kts 24°
2026-04-25 22:17 55.86274 -3.61536 3012 ft 188 kts 39°
2026-04-25 22:17 55.87172 -3.59988 2978 ft 187 kts 53°
2026-04-25 22:18 55.87932 -3.58091 2777 ft 185 kts 60°
2026-04-25 22:18 55.88585 -3.56175 2502 ft 177 kts 62°
2026-04-25 22:18 55.89200 -3.54364 2248 ft 163 kts 61°
2026-04-25 22:18 55.89763 -3.52701 2038 ft 156 kts 62°
2026-04-25 22:19 55.90303 -3.51112 1837 ft 143 kts 62°
2026-04-25 22:19 55.90818 -3.49590 1634 ft 143 kts 61°
2026-04-25 22:19 55.91331 -3.48079 1427 ft 139 kts 60°
2026-04-25 22:19 55.91805 -3.46681 1232 ft 125 kts 60°
2026-04-25 22:20 55.92264 -3.45320 1083 ft 129 kts 60°
2026-04-25 22:20 55.92725 -3.43952 845 ft 129 kts 59°
2026-04-25 22:20 55.93184 -3.42591 690 ft 129 kts 60°
2026-04-25 22:20 55.93646 -3.41255 510 ft 128 kts 59°
2026-04-25 22:21 55.94104 -3.39880 319 ft 128 kts 60°
2026-04-25 22:21 55.94564 -3.38538 168 ft 125 kts 60°
2026-04-25 22:21 55.94983 -3.37293 107 ft 88 kts 59°
2026-04-25 22:21 55.95158 -3.36770 109 ft 29 kts 57°
2026-04-25 22:22 55.95244 -3.36522 103 ft 15 kts 63°
2026-04-25 22:22 55.95214 -3.36373 101 ft 18 kts 143°
2026-04-25 22:22 55.95198 -3.36352 102 ft 0 kts 144°
2026-04-25 22:22 55.95188 -3.36340 102 ft 5 kts 147°
2026-04-25 22:23 55.95169 -3.36321 103 ft 5 kts 151°
2026-04-25 22:23 55.95117 -3.36339 105 ft 12 kts 213°
2026-04-25 22:23 55.95062 -3.36494 107 ft 17 kts 240°
2026-04-25 22:23 55.94998 -3.36686 106 ft 14 kts 238°
2026-04-25 22:24 55.94974 -3.36756 105 ft 6 kts 238°
2026-04-25 22:24 55.94934 -3.36826 105 ft 11 kts 194°
2026-04-25 22:24 55.94899 -3.36752 106 ft 9 kts 76°
2026-04-25 22:24 55.94909 -3.36710 106 ft 1 kts 67°
2026-04-25 22:25 55.94900 -3.36658 106 ft 8 kts 136°
2026-04-25 22:25 55.94875 -3.36628 106 ft 0 kts 146°